Location: Pachuta
(32.0431°N, 88.8831°W)
Time: 16:29:45
(UTC+00:00)

N. Korean satellite - Visible Passes

Search period start: 22 April 2021 00:00
Search period end: 02 May 2021 00:00
Orbit: 452 x 499 km, 97.2° (Epoch: 21 April)

Date Brightness Start Highest point End Pass type
(mag) Time Alt. Az. Time Alt. Az. Time Alt. Az.
23 Apr 8.9 10:40:43 10° NE 10:43:43 26° E 10:46:41 10° SSE visible
24 Apr 9.9 10:15:31 10° ENE 10:16:34 11° E 10:17:35 10° ESE visible
27 Apr 9.5 10:26:30 10° NE 10:28:45 16° E 10:31:00 10° SE visible
30 Apr 9.0 10:38:03 10° NE 10:40:55 24° E 10:43:43 10° SSE visible
